When you browse on this site, cookies collect data to enhance your experience and personalize the content and advertising you see.
Visit our Privacy Policy to learn more. By continuing to use the site, you agree to this use of cookies and data.
  • En España
  • Lista de países
  • Para 7 días
  • Temperatura del agua
  • Mapa Satelital
  • El tiempo en el mapa
  • Informadores
  • user-avatar
    Iniciar sesión

    Tiempo cada hora Djelfa

    Hoy, 21 Julio, Domingo

    Tiempo Temperatura Precipitaciones Viento Presión Humedad
    00:00 +29°C° 0 mm 7 mps 669 mmHg 28%
    01:00 +29°C° 0 mm 5 mps 669 mmHg 27%
    02:00 +29°C° 0 mm 4 mps 668 mmHg 25%
    03:00 +29°C° 0 mm 2 mps 668 mmHg 24%
    04:00 +29°C° 0 mm 2 mps 668 mmHg 26%
    05:00 +29°C° 0 mm 2 mps 668 mmHg 27%
    06:00 +29°C° 0 mm 2 mps 668 mmHg 28%
    07:00 +30°C° 0 mm 2 mps 669 mmHg 26%
    08:00 +33°C° 0 mm 3 mps 670 mmHg 23%
    09:00 +34°C° 0 mm 3 mps 670 mmHg 21%
    10:00 +35°C° 0 mm 3 mps 670 mmHg 20%
    11:00 +36°C° 0 mm 3 mps 670 mmHg 18%
    12:00 +37°C° 0 mm 3 mps 670 mmHg 17%
    13:00 +37°C° 0 mm 3 mps 670 mmHg 16%
    14:00 +38°C° 0 mm 4 mps 670 mmHg 15%
    15:00 +39°C° 0 mm 5 mps 670 mmHg 14%
    16:00 +38°C° 0 mm 6 mps 670 mmHg 17%
    17:00 +35°C° 0 mm 7 mps 670 mmHg 20%
    18:00 +34°C° 0 mm 8 mps 670 mmHg 22%
    19:00 +32°C° 0.1 mm 7 mps 670 mmHg 26%
    20:00 +30°C° 0.1 mm 5 mps 670 mmHg 30%
    21:00 +29°C° 0.1 mm 4 mps 670 mmHg 34%
    22:00 +28°C° 0 mm 4 mps 670 mmHg 35%
    23:00 +28°C° 0 mm 4 mps 670 mmHg 36%

    Mañana, 22 Julio, Lunes

    Tiempo Temperatura Precipitaciones Viento Presión Humedad
    00:00 +27°C° 0 mm 3 mps 669 mmHg 37%
    01:00 +27°C° 0 mm 3 mps 669 mmHg 36%
    02:00 +27°C° 0 mm 3 mps 669 mmHg 35%
    03:00 +27°C° 0 mm 2 mps 668 mmHg 34%
    04:00 +27°C° 0 mm 3 mps 669 mmHg 35%
    05:00 +27°C° 0 mm 3 mps 669 mmHg 35%
    06:00 +27°C° 0 mm 3 mps 669 mmHg 36%
    07:00 +28°C° 0 mm 3 mps 670 mmHg 34%
    08:00 +29°C° 0 mm 3 mps 670 mmHg 33%
    09:00 +30°C° 0 mm 3 mps 671 mmHg 31%
    10:00 +31°C° 0 mm 3 mps 671 mmHg 29%
    11:00 +33°C° 0 mm 3 mps 671 mmHg 27%
    12:00 +34°C° 0 mm 2 mps 671 mmHg 25%
    13:00 +35°C° 0 mm 3 mps 670 mmHg 24%
    14:00 +35°C° 0 mm 3 mps 670 mmHg 23%
    15:00 +35°C° 0 mm 3 mps 670 mmHg 22%
    16:00 +34°C° 0.2 mm 4 mps 669 mmHg 24%
    17:00 +33°C° 0.2 mm 4 mps 669 mmHg 27%
    18:00 +33°C° 0.2 mm 5 mps 669 mmHg 29%
    19:00 +32°C° 0 mm 5 mps 669 mmHg 30%
    20:00 +30°C° 0 mm 5 mps 669 mmHg 31%
    21:00 +30°C° 0 mm 5 mps 669 mmHg 32%
    22:00 +29°C° 0 mm 4 mps 669 mmHg 33%
    23:00 +28°C° 0 mm 4 mps 669 mmHg 34%

    Pasado mañana, 23 Julio, Martes

    Tiempo Temperatura Precipitaciones Viento Presión Humedad
    00:00 +28°C° 0 mm 4 mps 668 mmHg 35%
    01:00 +27°C° 0 mm 4 mps 668 mmHg 37%
    02:00 +26°C° 0 mm 3 mps 668 mmHg 38%
    03:00 +26°C° 0 mm 3 mps 668 mmHg 39%
    04:00 +26°C° 0 mm 3 mps 668 mmHg 39%
    05:00 +26°C° 0 mm 3 mps 668 mmHg 39%
    06:00 +26°C° 0 mm 3 mps 668 mmHg 38%
    07:00 +27°C° 0 mm 4 mps 668 mmHg 35%
    08:00 +29°C° 0 mm 5 mps 669 mmHg 31%
    09:00 +30°C° 0 mm 5 mps 669 mmHg 28%
    10:00 +32°C° 0 mm 5 mps 669 mmHg 27%
    11:00 +32°C° 0 mm 4 mps 669 mmHg 26%
    12:00 +33°C° 0 mm 4 mps 669 mmHg 25%
    13:00 +34°C° 0 mm 4 mps 669 mmHg 24%
    14:00 +34°C° 0 mm 3 mps 668 mmHg 23%
    15:00 +35°C° 0 mm 3 mps 668 mmHg 22%
    16:00 +34°C° 0 mm 3 mps 668 mmHg 22%
    17:00 +34°C° 0 mm 3 mps 668 mmHg 22%
    18:00 +34°C° 0 mm 3 mps 668 mmHg 22%
    19:00 +33°C° 0 mm 3 mps 668 mmHg 24%
    20:00 +32°C° 0 mm 4 mps 668 mmHg 25%
    21:00 +30°C° 0 mm 4 mps 668 mmHg 27%
    22:00 +29°C° 0 mm 5 mps 667 mmHg 27%
    23:00 +28°C° 0 mm 6 mps 667 mmHg 28%

    24 Julio, Miércoles

    Tiempo Temperatura Precipitaciones Viento Presión Humedad
    00:00 +28°C° 0 mm 6 mps 667 mmHg 28%
    01:00 +27°C° 0 mm 6 mps 667 mmHg 30%
    02:00 +27°C° 0 mm 5 mps 666 mmHg 31%
    03:00 +26°C° 0 mm 5 mps 666 mmHg 33%
    04:00 +26°C° 0 mm 5 mps 666 mmHg 33%
    05:00 +26°C° 0 mm 5 mps 666 mmHg 33%
    06:00 +26°C° 0 mm 5 mps 667 mmHg 33%
    07:00 +28°C° 0 mm 6 mps 667 mmHg 30%
    08:00 +29°C° 0 mm 6 mps 668 mmHg 27%
    09:00 +32°C° 0 mm 7 mps 668 mmHg 24%
    10:00 +33°C° 0 mm 6 mps 668 mmHg 23%
    11:00 +34°C° 0 mm 5 mps 668 mmHg 21%
    12:00 +35°C° 0 mm 5 mps 668 mmHg 20%
    13:00 +35°C° 0 mm 4 mps 668 mmHg 18%
    14:00 +36°C° 0 mm 4 mps 668 mmHg 17%
    15:00 +36°C° 0 mm 3 mps 667 mmHg 15%
    16:00 +36°C° 0 mm 4 mps 667 mmHg 15%
    17:00 +36°C° 0 mm 4 mps 667 mmHg 15%
    18:00 +36°C° 0 mm 4 mps 667 mmHg 15%
    19:00 +34°C° 0 mm 3 mps 667 mmHg 17%
    20:00 +33°C° 0 mm 3 mps 667 mmHg 20%
    21:00 +31°C° 0 mm 2 mps 667 mmHg 22%
    22:00 +30°C° 0 mm 3 mps 667 mmHg 23%
    23:00 +29°C° 0 mm 3 mps 667 mmHg 23%

    25 Julio, Jueves

    Tiempo Temperatura Precipitaciones Viento Presión Humedad
    00:00 +29°C° 0 mm 4 mps 666 mmHg 24%
    01:00 +28°C° 0 mm 4 mps 666 mmHg 25%
    02:00 +28°C° 0 mm 4 mps 666 mmHg 26%
    03:00 +27°C° 0 mm 4 mps 666 mmHg 27%
    04:00 +27°C° 0 mm 4 mps 666 mmHg 27%
    05:00 +27°C° 0 mm 4 mps 666 mmHg 26%
    06:00 +27°C° 0 mm 4 mps 667 mmHg 26%
    07:00 +30°C° 0 mm 4 mps 667 mmHg 23%
    08:00 +33°C° 0 mm 4 mps 668 mmHg 20%
    09:00 +35°C° 0 mm 5 mps 668 mmHg 17%
    10:00 +36°C° 0 mm 5 mps 668 mmHg 15%
    11:00 +37°C° 0 mm 4 mps 668 mmHg 14%
    12:00 +37°C° 0 mm 4 mps 668 mmHg 12%
    13:00 +38°C° 0 mm 4 mps 668 mmHg 12%
    14:00 +39°C° 0 mm 5 mps 668 mmHg 12%
    15:00 +39°C° 0 mm 5 mps 667 mmHg 11%
    16:00 +37°C° 0 mm 5 mps 667 mmHg 13%
    17:00 +36°C° 0 mm 5 mps 667 mmHg 15%
    18:00 +35°C° 0 mm 5 mps 666 mmHg 17%
    19:00 +34°C° 0 mm 4 mps 667 mmHg 18%
    20:00 +34°C° 0 mm 4 mps 667 mmHg 19%
    21:00 +33°C° 0 mm 4 mps 667 mmHg 20%
    22:00 +31°C° 0 mm 3 mps 667 mmHg 23%
    23:00 +30°C° 0 mm 3 mps 667 mmHg 26%

    26 Julio, Viernes

    Tiempo Temperatura Precipitaciones Viento Presión Humedad
    00:00 +29°C° 0 mm 2 mps 666 mmHg 29%
    01:00 +28°C° 0 mm 2 mps 666 mmHg 28%
    02:00 +28°C° 0 mm 2 mps 666 mmHg 28%
    03:00 +28°C° 0 mm 2 mps 666 mmHg 28%
    04:00 +28°C° 0 mm 2 mps 666 mmHg 28%
    05:00 +28°C° 0 mm 3 mps 666 mmHg 27%
    06:00 +28°C° 0 mm 4 mps 667 mmHg 27%
    07:00 +29°C° 0 mm 4 mps 667 mmHg 25%
    08:00 +32°C° 0 mm 5 mps 668 mmHg 22%
    09:00 +33°C° 0 mm 5 mps 668 mmHg 20%
    10:00 +34°C° 0 mm 6 mps 668 mmHg 19%
    11:00 +35°C° 0 mm 6 mps 668 mmHg 18%
    12:00 +36°C° 0 mm 6 mps 668 mmHg 17%
    13:00 +38°C° 0 mm 7 mps 668 mmHg 16%
    14:00 +38°C° 0 mm 7 mps 667 mmHg 15%
    15:00 +39°C° 0 mm 7 mps 667 mmHg 14%
    16:00 +38°C° 0 mm 7 mps 667 mmHg 14%
    17:00 +36°C° 0 mm 7 mps 667 mmHg 15%
    18:00 +35°C° 0 mm 7 mps 667 mmHg 15%
    19:00 +34°C° 0 mm 6 mps 667 mmHg 18%
    20:00 +32°C° 0 mm 5 mps 667 mmHg 21%
    21:00 +30°C° 0 mm 5 mps 667 mmHg 23%
    22:00 +29°C° 0 mm 4 mps 667 mmHg 27%
    23:00 +28°C° 0 mm 4 mps 667 mmHg 30%
    Mostrar más